This is the latest recevied weather packets stored in our database for station/object KX4O-13. If no packets are shown the sender has not sent any weather packets the latest 10 day(s).
| Time | Temp. | Humidity | Pressure | Rain* | Wind** | Luminosity | Snow |
|---|---|---|---|---|---|---|---|
| 1777663559 | 19.44° C | 40% | 1011.6 hPa | 0 mm | - | 763 W/m² | - |
| 1777663259 | 18.89° C | 37% | 1011.7 hPa | 0 mm | - | 773 W/m² | - |
| 1777662959 | 18.89° C | 38% | 1011.7 hPa | 0 mm | - | 780 W/m² | - |
| 1777662659 | 18.89° C | 36% | 1011.8 hPa | 0 mm | - | 789 W/m² | - |
| 1777662359 | 18.89° C | 35% | 1011.7 hPa | 0 mm | - | 795 W/m² | - |
| 1777662059 | 18.89° C | 38% | 1012 hPa | 0 mm | - | 805 W/m² | - |
| 1777661759 | 18.89° C | 36% | 1012.1 hPa | 0 mm | - | 810 W/m² | - |
| 1777661460 | 18.89° C | 35% | 1012.2 hPa | 0 mm | - | 819 W/m² | - |
| 1777661159 | 18.89° C | 38% | 1012.3 hPa | 0 mm | - | 823 W/m² | - |
| 1777660859 | 18.33° C | 38% | 1012.2 hPa | 0 mm | - | 831 W/m² | - |
| 1777660559 | 18.33° C | 38% | 1012.3 hPa | 0 mm | - | 831 W/m² | - |
| 1777660259 | 18.33° C | 37% | 1012.5 hPa | 0 mm | - | 835 W/m² | - |
| 1777659959 | 18.33° C | 41% | 1012.4 hPa | 0 mm | - | 842 W/m² | - |
| 1777659659 | 18.33° C | 39% | 1012.5 hPa | 0 mm | - | 851 W/m² | - |
| 1777659359 | 18.33° C | 40% | 1012.6 hPa | 0 mm | - | 851 W/m² | - |
| 1777659059 | 18.33° C | 37% | 1012.7 hPa | 0 mm | - | 861 W/m² | - |
| 1777658759 | 18.33° C | 41% | 1012.6 hPa | 0 mm | - | 863 W/m² | - |
| 1777658459 | 17.78° C | 39% | 1012.7 hPa | 0 mm | - | 867 W/m² | - |
| 1777658159 | 17.78° C | 39% | 1013 hPa | 0 mm | - | 870 W/m² | - |
| 1777657860 | 17.22° C | 39% | 1013 hPa | 0 mm | - | 896 W/m² | - |
| 1777657560 | 17.22° C | 39% | 1013 hPa | 0 mm | - | 791 W/m² | - |
| 1777657259 | 17.78° C | 39% | 1013.2 hPa | 0 mm | - | 749 W/m² | - |
| 1777656959 | 18.33° C | 40% | 1013 hPa | 0 mm | - | 889 W/m² | - |
| 1777656659 | 17.22° C | 39% | 1013.1 hPa | 0 mm | - | 884 W/m² | - |
| 1777656359 | 17.22° C | 42% | 1013.3 hPa | 0 mm | - | 877 W/m² | - |
* Rain latest hour (hover to see other rain measurements)
** Current wind speed in m/s (hover to see current wind gust speed)